EN

Hourly Weather Almargem do Bispo

Today, 19 January, Tuesday

Time Temperature Precipitation Wind Pressure Humidity
00:00 +6°C° 0 mm 2 mps 757 mmHg 82%
01:00 +5°C° 0 mm 2 mps 757 mmHg 85%
02:00 +5°C° 0 mm 2 mps 756 mmHg 87%
03:00 +5°C° 0 mm 2 mps 756 mmHg 89%
04:00 +4°C° 0 mm 3 mps 756 mmHg 91%
05:00 +4°C° 0 mm 3 mps 756 mmHg 93%
06:00 +4°C° 0 mm 3 mps 756 mmHg 92%
07:00 +5°C° 0 mm 3 mps 756 mmHg 91%
08:00 +5°C° 0 mm 3 mps 755 mmHg 90%
09:00 +7°C° 0 mm 4 mps 755 mmHg 86%
10:00 +10°C° 0 mm 4 mps 755 mmHg 82%
11:00 +10°C° 0 mm 5 mps 755 mmHg 78%
12:00 +12°C° 0 mm 5 mps 755 mmHg 75%
13:00 +13°C° 0 mm 6 mps 754 mmHg 72%
14:00 +13°C° 0 mm 6 mps 753 mmHg 69%
15:00 +11°C° 0 mm 6 mps 752 mmHg 72%
16:00 +11°C° 0 mm 7 mps 752 mmHg 76%
17:00 +10°C° 0 mm 7 mps 752 mmHg 80%
18:00 +10°C° 0 mm 8 mps 751 mmHg 79%
19:00 +11°C° 0 mm 8 mps 751 mmHg 79%
20:00 +11°C° 0 mm 9 mps 750 mmHg 78%
21:00 +11°C° 0.2 mm 10 mps 749 mmHg 79%
22:00 +11°C° 0.2 mm 10 mps 749 mmHg 81%
23:00 +11°C° 0.2 mm 11 mps 748 mmHg 82%

Tomorrow, 20 January, Wednesday

Time Temperature Precipitation Wind Pressure Humidity
00:00 +11°C° 3.9 mm 11 mps 747 mmHg 86%
01:00 +11°C° 3.9 mm 10 mps 746 mmHg 90%
02:00 +11°C° 3.9 mm 10 mps 745 mmHg 94%
03:00 +11°C° 1.8 mm 9 mps 745 mmHg 91%
04:00 +12°C° 1.8 mm 8 mps 745 mmHg 89%
05:00 +12°C° 1.8 mm 7 mps 744 mmHg 87%
06:00 +11°C° 0.2 mm 7 mps 745 mmHg 87%
07:00 +11°C° 0.2 mm 6 mps 745 mmHg 87%
08:00 +11°C° 0.2 mm 6 mps 745 mmHg 87%
09:00 +12°C° 0.2 mm 7 mps 745 mmHg 83%
10:00 +12°C° 0.2 mm 8 mps 746 mmHg 79%
11:00 +13°C° 0.2 mm 9 mps 746 mmHg 75%
12:00 +13°C° 0.8 mm 9 mps 746 mmHg 77%
13:00 +13°C° 0.8 mm 10 mps 746 mmHg 79%
14:00 +12°C° 0.8 mm 10 mps 746 mmHg 80%
15:00 +12°C° 0.3 mm 9 mps 746 mmHg 82%
16:00 +12°C° 0.3 mm 9 mps 746 mmHg 84%
17:00 +11°C° 0.3 mm 8 mps 746 mmHg 85%
18:00 +11°C° 0.2 mm 8 mps 747 mmHg 86%
19:00 +11°C° 0.2 mm 8 mps 748 mmHg 87%
20:00 +11°C° 0.2 mm 7 mps 748 mmHg 87%
21:00 +11°C° 0.1 mm 7 mps 748 mmHg 88%
22:00 +11°C° 0.1 mm 7 mps 749 mmHg 88%
23:00 +11°C° 0.1 mm 7 mps 749 mmHg 89%

Day after tomorrow, 21 January, Thursday

Time Temperature Precipitation Wind Pressure Humidity
00:00 +11°C° 0 mm 7 mps 749 mmHg 89%
01:00 +11°C° 0 mm 6 mps 749 mmHg 90%
02:00 +11°C° 0 mm 6 mps 749 mmHg 91%
03:00 +11°C° 0.1 mm 6 mps 749 mmHg 92%
04:00 +11°C° 0.1 mm 6 mps 749 mmHg 93%
05:00 +11°C° 0.1 mm 6 mps 749 mmHg 94%
06:00 +11°C° 0.1 mm 8 mps 749 mmHg 92%
07:00 +12°C° 0.1 mm 9 mps 749 mmHg 90%
08:00 +13°C° 0.1 mm 11 mps 749 mmHg 87%
09:00 +13°C° 0.2 mm 11 mps 749 mmHg 87%
10:00 +13°C° 0.2 mm 12 mps 749 mmHg 87%
11:00 +13°C° 0.2 mm 12 mps 750 mmHg 87%
12:00 +14°C° 0.5 mm 11 mps 749 mmHg 86%
13:00 +15°C° 0.5 mm 9 mps 749 mmHg 84%
14:00 +15°C° 0.5 mm 8 mps 749 mmHg 83%
15:00 +14°C° 0 mm 7 mps 750 mmHg 85%
16:00 +13°C° 0 mm 6 mps 750 mmHg 86%
17:00 +12°C° 0 mm 5 mps 750 mmHg 88%
18:00 +12°C° 0 mm 4 mps 751 mmHg 89%
19:00 +11°C° 0 mm 4 mps 751 mmHg 90%
20:00 +11°C° 0 mm 4 mps 752 mmHg 91%
21:00 +11°C° 0 mm 4 mps 752 mmHg 91%
22:00 +11°C° 0 mm 4 mps 752 mmHg 91%
23:00 +11°C° 0 mm 4 mps 752 mmHg 92%

22 January, Friday

Time Temperature Precipitation Wind Pressure Humidity
00:00 +11°C° 0.3 mm 6 mps 751 mmHg 92%
01:00 +11°C° 0.3 mm 7 mps 751 mmHg 92%
02:00 +12°C° 0.3 mm 8 mps 751 mmHg 92%
03:00 +12°C° 0.5 mm 8 mps 751 mmHg 91%
04:00 +12°C° 0.5 mm 9 mps 750 mmHg 91%
05:00 +12°C° 0.5 mm 9 mps 750 mmHg 90%
06:00 +12°C° 0.1 mm 10 mps 751 mmHg 87%
07:00 +11°C° 0.1 mm 10 mps 751 mmHg 84%
08:00 +11°C° 0.1 mm 10 mps 752 mmHg 80%
09:00 +12°C° 0.1 mm 10 mps 753 mmHg 74%
10:00 +12°C° 0.1 mm 10 mps 753 mmHg 69%
11:00 +13°C° 0.1 mm 9 mps 754 mmHg 63%
12:00 +13°C° 0 mm 9 mps 754 mmHg 63%
13:00 +12°C° 0 mm 9 mps 754 mmHg 63%
14:00 +12°C° 0 mm 9 mps 754 mmHg 63%
15:00 +11°C° 0 mm 8 mps 754 mmHg 66%
16:00 +10°C° 0 mm 7 mps 755 mmHg 68%
17:00 +9°C° 0 mm 6 mps 755 mmHg 71%
18:00 +9°C° 0 mm 5 mps 755 mmHg 73%
19:00 +9°C° 0 mm 5 mps 756 mmHg 75%
20:00 +8°C° 0 mm 4 mps 756 mmHg 76%
21:00 +8°C° 0 mm 4 mps 756 mmHg 78%
22:00 +8°C° 0 mm 4 mps 756 mmHg 79%
23:00 +8°C° 0 mm 4 mps 756 mmHg 80%

23 January, Saturday

Time Temperature Precipitation Wind Pressure Humidity
00:00 +8°C° 0 mm 4 mps 756 mmHg 80%
01:00 +8°C° 0 mm 4 mps 756 mmHg 80%
02:00 +8°C° 0 mm 4 mps 756 mmHg 81%
03:00 +9°C° 0 mm 5 mps 755 mmHg 80%
04:00 +9°C° 0 mm 5 mps 755 mmHg 79%
05:00 +10°C° 0 mm 5 mps 755 mmHg 79%
06:00 +10°C° 0 mm 6 mps 755 mmHg 80%
07:00 +10°C° 0 mm 6 mps 755 mmHg 82%
08:00 +10°C° 0 mm 6 mps 755 mmHg 83%
09:00 +11°C° 0 mm 7 mps 755 mmHg 83%
10:00 +12°C° 0 mm 7 mps 755 mmHg 82%
11:00 +12°C° 0 mm 8 mps 754 mmHg 81%
12:00 +12°C° 0.1 mm 8 mps 754 mmHg 83%
13:00 +13°C° 0.1 mm 8 mps 753 mmHg 85%
14:00 +13°C° 0.1 mm 8 mps 753 mmHg 87%
15:00 +13°C° 0 mm 8 mps 753 mmHg 89%
16:00 +14°C° 0 mm 7 mps 753 mmHg 92%
17:00 +14°C° 0 mm 7 mps 753 mmHg 94%
18:00 +14°C° 0 mm 7 mps 753 mmHg 94%
19:00 +14°C° 0 mm 6 mps 753 mmHg 95%
20:00 +14°C° 0 mm 6 mps 753 mmHg 95%
21:00 +14°C° 0 mm 6 mps 753 mmHg 95%
22:00 +14°C° 0 mm 6 mps 753 mmHg 95%
23:00 +14°C° 0 mm 6 mps 753 mmHg 95%

24 January, Sunday

Time Temperature Precipitation Wind Pressure Humidity
00:00 +14°C° 0.1 mm 6 mps 753 mmHg 96%
01:00 +14°C° 0.1 mm 5 mps 753 mmHg 96%
02:00 +13°C° 0.1 mm 5 mps 753 mmHg 96%
03:00 +13°C° 0.1 mm 4 mps 753 mmHg 95%
04:00 +13°C° 0.1 mm 4 mps 753 mmHg 94%
05:00 +13°C° 0.1 mm 4 mps 753 mmHg 94%
06:00 +13°C° 0.1 mm 3 mps 753 mmHg 92%
07:00 +14°C° 0.1 mm 3 mps 753 mmHg 91%
08:00 +14°C° 0.1 mm 3 mps 754 mmHg 89%
09:00 +16°C° 0.1 mm 3 mps 754 mmHg 84%
10:00 +17°C° 0.1 mm 3 mps 754 mmHg 78%
11:00 +19°C° 0.1 mm 4 mps 754 mmHg 72%
12:00 +19°C° 0.1 mm 4 mps 754 mmHg 71%
13:00 +19°C° 0.1 mm 4 mps 753 mmHg 70%
14:00 +19°C° 0.1 mm 4 mps 753 mmHg 70%
15:00 +18°C° 0.1 mm 4 mps 753 mmHg 75%
16:00 +17°C° 0.1 mm 4 mps 753 mmHg 81%
17:00 +16°C° 0.1 mm 3 mps 753 mmHg 87%
18:00 +15°C° 0.2 mm 4 mps 753 mmHg 88%
19:00 +15°C° 0.2 mm 4 mps 753 mmHg 89%
20:00 +15°C° 0.2 mm 4 mps 753 mmHg 89%
21:00 +15°C° 0.4 mm 5 mps 753 mmHg 90%
22:00 +15°C° 0.4 mm 5 mps 753 mmHg 91%
23:00 +15°C° 0.4 mm 5 mps 753 mmHg 91%
Show more